Powrót do katalogu

COSMOS 1579 COOLANT

LostLEO
NORAD 28272·DEBRIS·🇷🇺 Russia

Wystrzelony Jun 29, 1984 z Baikonur Cosmodrome

Loading…

Następne Przeloty (najbliższe 24 godziny)

TLE

NieaktualneSource: Space-Track

Epoka: Nov 24, 2006, 05:43 UTC

1 28272U 84069AH  06328.23863535 -.00000009 +00000-0 +64821-4 0  9997
2 28272 065.0366 178.0097 0055536 306.4758 053.3855 13.89918589142836

Śledź COSMOS 1579 COOLANT w czasie rzeczywistym z AllMySat

Download on the App Store